Date String (YYYY-MM-DD hh:mm:ss) UTC,Instrument flags,Ambient pressure (hPa),Sample flow (lpm),Bypass flow (lpm),Sample temperature (°C),Ambient temperature (°C),ASC tube jacket temperature (°C),LED temperature (°C),Box temperature (°C),Sample RH (%),Span deviation,Mass concentration (μg/m³),Mass concentration (μg/m³),Mass concentration (μg/m³)
DateTimeUTC,F1_M11,P_M11,Q1_M11,Q2_M11,T1_M11,T2_M11,T3_M11,T4_M11,T5_M11,U1_M11,ZSPAN_M11,X0_M11,X2_M11,X1_M11
2022-09-25 13:00:00,,0835.7,4.99,0.00,29.3,27.5,00.0,38.1,31.1,15.2,0000.7,0010.83,0006.36,0005.86
2022-09-25 13:01:00,,0835.7,5.00,0.00,29.3,27.5,00.0,38.1,31.1,15.2,0000.0,0010.97,0006.38,0005.88
2022-09-25 13:02:00,,0835.7,5.01,0.00,29.2,27.5,00.0,38.1,31.1,15.2,0000.0,0011.29,0006.40,0005.89
2022-09-25 13:03:00,,0835.7,4.99,0.00,29.2,27.5,00.0,38.1,31.1,15.2,0000.0,0011.10,0006.43,0005.91
2022-09-25 13:04:00,,0835.7,4.99,0.00,29.2,27.5,00.0,38.1,31.1,15.2,0000.2,0011.15,0006.49,0005.93
2022-09-25 13:05:00,,0835.7,5.00,0.00,29.2,27.5,00.0,38.1,31.1,15.3,0000.5,0011.09,0006.52,0005.95
2022-09-25 13:06:00,,0835.7,5.00,0.00,29.2,27.5,00.0,38.1,31.0,15.3,0001.4,0010.92,0006.53,0005.96
2022-09-25 13:07:00,,0835.7,5.01,0.00,29.2,27.5,00.0,38.1,31.0,15.3,0003.2,0010.46,0006.51,0005.96
2022-09-25 13:08:00,,0835.7,5.01,0.00,29.2,27.5,00.0,38.1,31.1,15.3,0003.2,0010.47,0006.51,0005.97
2022-09-25 13:09:00,,0835.7,4.99,0.00,29.2,27.5,00.0,38.1,31.0,15.3,0002.6,0010.44,0006.52,0005.98
2022-09-25 13:10:00,,0835.7,5.01,0.00,29.2,27.5,00.0,38.0,31.0,15.4,0000.0,0010.27,0006.50,0005.99
2022-09-25 13:11:00,,0835.7,4.99,0.00,29.2,27.5,00.0,38.0,31.0,15.4,0000.0,0010.17,0006.48,0006.00
2022-09-25 13:12:00,,0835.8,5.01,0.00,29.2,27.5,00.0,38.0,31.0,15.4,0000.6,0009.98,0006.48,0006.00
2022-09-25 13:13:00,,0835.7,4.99,0.00,29.2,27.5,00.0,38.0,31.0,15.4,0000.8,0010.13,0006.48,0006.00
2022-09-25 13:14:00,,0835.7,5.02,0.00,29.2,27.5,00.0,38.0,31.0,15.4,0001.1,0010.03,0006.46,0005.99
2022-09-25 13:15:00,,0835.8,4.99,0.00,29.2,27.5,00.0,38.0,31.0,15.5,0002.0,0009.91,0006.44,0005.99
2022-09-25 13:16:00,,0835.8,5.00,0.00,29.2,27.5,00.0,38.0,31.0,15.5,0002.1,0009.94,0006.43,0005.99
2022-09-25 13:17:00,,0835.8,4.99,0.00,29.2,27.5,00.0,38.0,31.0,15.5,0002.4,0010.08,0006.41,0005.99
2022-09-25 13:18:00,,0835.7,5.00,0.00,29.2,27.5,00.0,38.0,31.0,15.5,0002.6,0010.18,0006.39,0006.00
2022-09-25 13:19:00,,0835.8,4.98,0.00,29.2,27.5,00.0,38.0,31.0,15.5,0002.5,0010.24,0006.39,0006.01
2022-09-25 13:20:00,,0835.8,5.02,0.00,29.2,27.5,00.0,38.0,31.0,15.5,0002.5,0010.51,0006.40,0006.01
2022-09-25 13:21:00,,0835.7,4.99,0.00,29.2,27.5,00.0,38.0,31.0,15.5,0002.3,0010.63,0006.40,0006.01
2022-09-25 13:22:00,,0835.7,5.01,0.00,29.2,27.5,00.0,38.0,31.0,15.5,0002.0,0010.95,0006.44,0006.02
2022-09-25 13:23:00,,0835.7,5.00,0.00,29.2,27.5,00.0,38.0,31.0,15.5,0001.8,0011.16,0006.47,0006.03
2022-09-25 13:24:00,,0835.7,5.00,0.00,29.2,27.5,00.0,38.0,31.0,15.5,0001.5,0011.04,0006.46,0006.03
2022-09-25 13:25:00,,0835.7,5.00,0.00,29.2,27.5,00.0,38.0,31.0,15.5,0001.2,0010.63,0006.46,0006.04
2022-09-25 13:26:00,,0835.7,4.99,0.00,29.2,27.5,00.0,38.0,31.0,15.5,0001.1,0010.79,0006.51,0006.04
2022-09-25 13:27:00,,0835.7,5.00,0.00,29.2,27.5,00.0,38.0,31.0,15.5,0000.9,0010.89,0006.51,0006.04
2022-09-25 13:28:00,,0835.7,5.00,0.00,29.2,27.5,00.0,38.0,31.0,15.5,0000.9,0011.14,0006.53,0006.04
2022-09-25 13:29:00,,0835.7,5.00,0.00,29.2,27.5,00.0,38.0,31.0,15.5,0001.3,0010.95,0006.54,0006.03
2022-09-25 13:30:00,,0835.8,4.99,0.00,29.2,27.5,00.0,38.0,31.0,15.6,0000.9,0010.86,0006.54,0006.03
2022-09-25 13:31:00,,0835.8,4.99,0.00,29.2,27.5,00.0,38.0,31.0,15.6,0000.0,0010.55,0006.52,0006.01
2022-09-25 13:32:00,,0835.7,5.00,0.00,29.2,27.5,00.0,38.0,31.0,15.6,0000.8,0010.51,0006.50,0006.00
2022-09-25 13:33:00,,0835.8,4.99,0.00,29.2,27.5,00.0,38.0,31.0,15.6,0001.3,0010.21,0006.46,0005.97
2022-09-25 13:34:00,,0835.8,5.01,0.00,29.2,27.5,00.0,38.0,31.0,15.7,0001.4,0010.69,0006.39,0005.93
2022-09-25 13:35:00,,0835.8,5.00,0.00,29.2,27.6,00.0,38.0,31.0,15.7,0001.4,0011.20,0006.36,0005.91
2022-09-25 13:36:00,,0835.8,5.01,0.00,29.2,27.6,00.0,38.0,31.0,15.7,0000.6,0011.40,0006.37,0005.89
2022-09-25 13:37:00,,0835.8,4.99,0.00,29.2,27.6,00.0,38.0,31.0,15.7,0000.0,0011.24,0006.31,0005.86
2022-09-25 13:38:00,,0835.8,5.01,0.00,29.2,27.6,00.0,38.0,31.0,15.6,0000.0,0011.17,0006.27,0005.83
2022-09-25 13:39:00,,0835.9,4.99,0.00,29.2,27.6,00.0,38.0,31.1,15.6,0000.0,0010.73,0006.24,0005.82
2022-09-25 13:40:00,,0835.9,4.99,0.00,29.2,27.6,00.0,38.0,31.1,15.6,0000.0,0011.20,0006.24,0005.80
2022-09-25 13:41:00,,0835.9,5.01,0.00,29.2,27.6,00.0,38.0,31.1,15.6,0000.0,0011.24,0006.26,0005.78
2022-09-25 13:42:00,,0835.8,4.99,0.00,29.2,27.6,00.0,38.0,31.1,15.5,0000.0,0011.28,0006.28,0005.78
2022-09-25 13:43:00,,0835.9,5.01,0.00,29.2,27.7,00.0,38.0,31.1,15.6,0000.2,0011.57,0006.26,0005.77
2022-09-25 13:44:00,,0835.9,4.99,0.00,29.2,27.7,00.0,38.0,31.1,15.8,0000.1,0012.21,0006.26,0005.76
2022-09-25 13:45:00,,0835.9,5.02,0.00,29.2,27.7,00.0,38.0,31.1,15.8,0000.2,0011.99,0006.29,0005.76
2022-09-25 13:46:00,,0835.8,4.99,0.00,29.2,27.7,00.0,38.0,31.1,15.7,0000.0,0011.37,0006.30,0005.75
2022-09-25 13:47:00,,0835.9,5.01,0.00,29.2,27.7,00.0,38.0,31.1,16.0,0000.0,0011.12,0006.26,0005.74
2022-09-25 13:48:00,,0835.9,4.99,0.00,29.2,27.7,00.0,38.0,31.1,16.0,0000.4,0011.27,0006.29,0005.75
2022-09-25 13:49:00,,0835.9,5.00,0.00,29.2,27.7,00.0,38.0,31.1,16.2,0001.8,0011.83,0006.31,0005.76
2022-09-25 13:50:00,,0835.9,5.00,0.00,29.2,27.7,00.0,38.0,31.1,16.1,0002.3,0012.03,0006.35,0005.77
2022-09-25 13:51:00,,0835.9,4.99,0.00,29.2,27.7,00.0,38.0,31.1,16.5,0002.0,0012.31,0006.36,0005.77
2022-09-25 13:52:00,,0835.9,5.01,0.00,29.2,27.8,00.0,38.0,31.1,16.3,0001.7,0012.27,0006.29,0005.73
2022-09-25 13:53:00,,0835.9,4.99,0.00,29.3,27.8,00.0,38.0,31.2,16.7,0001.3,0012.47,0006.29,0005.72
2022-09-25 13:54:00,,0835.8,4.99,0.00,29.3,27.8,00.0,38.0,31.2,16.4,0001.4,0012.13,0006.29,0005.72
2022-09-25 13:55:00,,0835.9,5.01,0.00,29.3,27.8,00.0,38.0,31.2,16.4,0001.1,0011.52,0006.26,0005.72
2022-09-25 13:56:00,,0835.9,5.00,0.00,29.3,27.8,00.0,38.0,31.2,16.7,0000.6,0011.82,0006.25,0005.73
2022-09-25 13:57:00,,0835.9,5.00,0.00,29.3,27.9,00.0,38.0,31.2,16.5,0000.7,0011.69,0006.23,0005.74
2022-09-25 13:58:00,,0835.9,5.00,0.00,29.3,27.9,00.0,38.0,31.2,16.6,0000.8,0011.97,0006.25,0005.75
2022-09-25 13:59:00,,0835.9,5.00,0.00,29.3,27.9,00.0,38.0,31.2,16.3,0001.3,0011.98,0006.23,0005.73
